Regional Weather Roundup
Issued by NWS

Home | Current Version | Previous Version | Text Only | Print | Product List | Glossary Off
Versions: 1 2 3 4 5 6 7 8 9 10 11 12 13 14 15 16 17 18 19 20 21 22 23 24 25 26 27 28 29 30 31 32 33 34 35 36 37 38 39 40 41 42 43 44 45 46 47 48 49 50

000
ASUS43 KMPX 140301
RWRMN
WEATHER ROUNDUP FOR MINNESOTA
NATIONAL WEATHER SERVICE TWIN CITIES/CHANHASSEN MN
1000 PM CDT SUN JUL 13 2014


NOTE: "FAIR" INDICATES FEW OR NO CLOUDS BELOW 12,000 FEET WITH NO
SIGNIFICANT WEATHER AND/OR OBSTRUCTIONS TO VISIBILITY. N/A MEANS
CURRENT SKY AND/OR WEATHER CONDITIONS ARE NOT AVAILABLE.

MNZ060>063-068>070-140400-
   Twin Cities Metro

CITY           SKY/WX    TMP DP  RH WIND       PRES   REMARKS
TWIN CITIES    PTCLDY    69  48  47 W6        29.91R
ST PAUL        PTCLDY    68  46  45 W6        29.90R
CRYSTAL        PTCLDY    68  48  48 W5        29.89R
BLAINE         MOCLDY    68  48  49 SW3       29.90S
LAKEVILLE      CLEAR     63  52  67 CALM      29.92R
EDEN PRAIRIE   PTCLDY    66  49  54 W6        29.91R
SOUTH ST PAUL  PTCLDY    69  47  45 W3        29.90R
LAKE ELMO      FAIR      61  54  77 CALM      29.91R
$$
MNZ001>005-007-008-013>017-022>024-027-028-140400-
   Northwest Minnesota

CITY           SKY/WX    TMP DP  RH WIND       PRES   REMARKS
BEMIDJI        MOCLDY    54  51  89 W6        29.91S
HALLOCK        DRIZZLE   54  52  94 N18G24    29.93R
ROSEAU         DRIZZLE   52  46  82 NW10      29.88S
WARROAD        LGT RAIN  52  46  82 W9G16     29.87R
THIEF RVR FALL MOCLDY    57  46  67 NW15      29.92R
CROOKSTON      CLOUDY    61  48  63 NW9       29.94S
FOSSTON        MOCLDY    54  46  76 W5        29.93S
MOORHEAD       CLOUDY    64  46  52 N8        29.96R
PARK RAPIDS    CLOUDY    59  50  72 N8        29.92R
$$
MNZ006-009>011-018-025>026-140400-
   North Central Minnesota

CITY           SKY/WX    TMP DP  RH WIND       PRES   REMARKS
BAUDETTE       CLOUDY    52  50  93 VRB5      29.84F
FLAG ISLAND    CLOUDY    54  48  82 NW23G30   29.82R
INTL FALLS     LGT RAIN  53  50  89 W8        29.82S
WASKISH        CLOUDY    57  52  82 W16G23    29.87S
BIG FORK       PTCLDY    54  50  87 SW5       29.87F
LONGVILLE      PTCLDY    54  52  94 NW5       29.91R
GRAND RAPIDS   CLOUDY    55  46  71 NW12G20   29.90R
CRANE LAKE     CLOUDY    52  48  87 SW3       29.85S
ORR            PTCLDY    52  48  87 CALM      29.83S
COOK           PTCLDY    52  50  93 SW3       29.86S
$$
MNZ012-019>021-037-140400-
   Northeast Minnesota

CITY           SKY/WX    TMP DP  RH WIND       PRES   REMARKS
DULUTH         MOCLDY    58  47  66 NW10      29.88R
ELY            CLOUDY    52  48  87 W5        29.84S
HIBBING        CLOUDY    55  49  80 W5        29.88R
EVELETH        CLOUDY    52  50  93 W7        29.88S
DULUTH HARBOR  MOCLDY    64  52  63 NW18      29.87R
TWO HARBORS    MOCLDY    54  48  82 W3        29.85S
SILVER BAY     DRIZZLE   54  54 100 CALM      29.82F
GRAND MARAIS     N/A     53  47  79 W3        29.81R
G MARAIS ARPRT LGT RAIN  52  46  82 W3        29.82F
$$
MNZ029>031-032-039>041-046>048-054>057-064-140400-
   West Central Minnesota

CITY           SKY/WX    TMP DP  RH WIND       PRES   REMARKS
FERGUS FALLS   CLOUDY    63  45  51 N9        29.95R
WHEATON        CLEAR     63  48  59 NW7       29.97R
MORRIS         CLEAR     59  50  72 NW6       29.94R
ALEXANDRIA     PTCLDY    65  47  52 NW8       29.95R
ELBOW LAKE     FAIR      64  48  55 N10       29.94R
WADENA         MOCLDY    61  48  63 NW8       29.93R
GLENWOOD       PTCLDY    61  48  63 NW5       29.94S
APPLETON       CLEAR     61  50  67 W6        29.94S
BENSON         CLEAR     59  46  63 N6        29.94R
ORTONVILLE     CLEAR     68  46  45 NW7       29.96R
MADISON        CLEAR     63  54  72 W6        29.96R
WILLMAR        FAIR      64  46  52 W6        29.95S
$$
MNZ033>034-036-042>043-049>051-058-059-140400-
   Central Minnesota

CITY           SKY/WX    TMP DP  RH WIND       PRES   REMARKS
ST CLOUD       MOCLDY    67  47  48 W5        29.90R
SAUK CENTRE    FAIR      64  46  52 NW7       29.93R
PAYNESVILLE    PTCLDY    60  49  67 CALM      29.93S
AITKIN         MOCLDY    63  52  67 CALM      29.89R
PINE RIVER     CLOUDY    57  52  82 NW9       29.95R
BRAINERD       MOCLDY    64  51  62 NW8       29.91R
STAPLES        MOCLDY    61  48  63 NW5       29.92R
LONG PRAIRIE   FAIR      61  46  59 W5        29.93S
LITTLE FALLS   PTCLDY    59  46  63 CALM      29.91S
LITCHFIELD     MOCLDY    66  50  55 CALM      29.93S
BUFFALO        PTCLDY    65  49  55 W5        29.92R
MAPLE LAKE     PTCLDY    64  51  62 CALM      29.92R
$$
MNZ037-044-045-052-053-140400-
   East Central Minnesota

CITY           SKY/WX    TMP DP  RH WIND       PRES   REMARKS
PRINCETON      MOCLDY    64  52  63 CALM      29.90S
MORA           PTCLDY    61  50  67 W3        29.90S
CAMBRIDGE      MOCLDY    64  52  63 CALM      29.88R
RUSH CITY      CLOUDY    63  51  65 CALM      29.89S
MOOSE LAKE     CLOUDY    55  52  88 CALM      29.86S
HINCKLEY       MOCLDY    63  52  67 W3        29.88S
CLOQUET        MOCLDY    59  46  63 NW18G24   29.89R
MCGREGOR       CLOUDY    61  50  67 NW9       29.90R
$$
MNZ071>073-080-081-089-090-097-098-140400-
   Southwest Minnesota

CITY           SKY/WX    TMP DP  RH WIND       PRES   REMARKS
MONTEVIDEO     CLEAR     64  48  55 NW3       29.96R
GRANITE FALLS  PTCLDY    61  54  76 W7        29.97R
CANBY          CLEAR     60  52  76 W5        29.98R
MARSHALL       CLEAR     61  52  72 W7        29.96R
REDWOOD FALLS  PTCLDY    66  49  54 NW7       29.94R
OLIVIA         PTCLDY    61  52  72 CALM      29.94R
PIPESTONE      CLEAR     66  46  48 NW6       30.00R
WINDOM         CLEAR     63  52  67 NW6       29.97R
WORTHINGTON    CLEAR     64  55  72 NW7       30.00R
JACKSON        CLEAR     63  54  72 NW5       29.98R
TRACY          CLEAR     65  51  58 W5        29.98R
SLAYTON        CLEAR     61  51  70 CALM      30.00R
$$
MNZ065>067-074>077-082>085-091>093-140400-
   South Central Minnesota

CITY           SKY/WX    TMP DP  RH WIND       PRES   REMARKS
MANKATO        CLEAR     66  46  48 NW3       29.94R
NEW ULM        CLEAR     64  52  63 NW5       29.95R
ST JAMES       CLEAR     63  54  72 W5        29.96R
FAIRMONT       CLEAR     63  48  59 N6        29.95R
GLENCOE        CLEAR     67  46  47 W5        29.92S
FARIBAULT      CLEAR     63  54  72 W3        29.94R
OWATONNA       CLEAR     61  52  72 CALM      29.94R
WASECA         CLEAR     61  46  59 W5        29.96R
ALBERT LEA     CLEAR     66  52  59 NW3       29.95R
$$
MNZ078>079-086>088-094>096-140400-
   Southeast Minnesota

CITY           SKY/WX    TMP DP  RH WIND       PRES   REMARKS
ROCHESTER      CLEAR     64  51  62 NW9       29.95R
RED WING       CLEAR     63  54  72 CALM      29.90R
STANTON        CLEAR     64  51  63 SW3       29.91R
DODGE CENTER   CLEAR     64  52  63 W5        29.94R
WINONA         CLOUDY    70  59  68 CALM      29.90R
AUSTIN         PTCLDY    66  46  48 NW6       29.94R
PRESTON        CLEAR     65  56  72 W8        29.94R
$$
ABBREVIATIONS USED IN REMARKS
   TC - TEMPERATURES IN CELSIUS
  WCI - WIND CHILL INDEX
   HX - HEAT INDEX
  VSB - VISIBILITY
$$


USA.gov is the U.S. government's official web portal to all federal, state and local government web resources and services.